WV5G-13 Weather Reports


time (UTC)temp
C
wind
direction
speed
KPH
gust
KPH
rain 1hr
cm
rain 24hr
cm
rain mn
cm
humidity
%
barometer
mb
20260510132641 13 0 24.1 45.1 0.00 0.00 0.00 87 1016.4
20260510132139 13 21 20.9 35.4 0.00 0.00 0.00 88 1015.9
20260510131636 13 8 27.4 48.3 0.00 0.00 0.00 87 1015.9
20260510131133 13 3 29.0 40.2 0.00 0.00 0.00 87 1015.7
20260510130630 13 8 20.9 45.1 0.00 0.00 0.00 87 1015.5
20260510130127 13 10 17.7 30.6 0.00 0.00 0.00 87 1015.5
20260510125623 13 22 29.0 41.8 0.00 0.00 0.00 86 1015.1
20260510125120 13 9 16.1 37.0 0.00 0.00 0.00 86 1014.8
20260510124617 13 11 25.7 40.2 0.00 0.00 0.00 86 1014.9
20260510124114 13 18 30.6 37.0 0.00 0.00 0.00 86 1014.6
20260510123609 14 8 24.1 33.8 0.00 0.00 0.00 86 1014.3
20260510123105 15 16 24.1 30.6 0.00 0.00 0.00 86 1014.1
20260510122601 15 16 16.1 27.4 0.00 0.00 0.00 85 1014.0
20260510122057 15 28 32.2 38.6 0.00 0.00 0.00 85 1013.9
20260510121554 15 15 16.1 30.6 0.00 0.00 0.00 85 1013.8
20260510121051 15 27 20.9 27.4 0.00 0.00 0.00 85 1013.6
20260510120549 15 31 12.9 32.2 0.00 0.00 0.00 85 1013.7
20260510120044 15 35 27.4 35.4 0.00 0.00 0.00 85 1013.6
20260510115541 15 39 27.4 35.4 0.00 0.00 0.00 85 1013.1
20260510115039 15 39 22.5 29.0 0.00 0.00 0.00 85 1013.1
20260510114534 15 45 17.7 32.2 0.00 0.00 0.00 85 1013.1
20260510114031 15 53 20.9 22.5 0.00 0.00 0.00 84 1013.1
20260510113526 15 58 17.7 30.6 0.00 0.00 0.00 84 1013.0
20260510113024 15 58 20.9 33.8 0.00 0.00 0.00 83 1012.8
20260510112520 15 73 24.1 33.8 0.00 0.00 0.00 83 1012.7
20260510112016 15 69 20.9 35.4 0.00 0.00 0.00 82 1012.7
20260510111514 15 74 24.1 37.0 0.00 0.00 0.00 81 1012.2
20260510111009 15 85 27.4 41.8 0.00 0.00 0.00 81 1012.5
20260510110505 15 80 24.1 38.6 0.00 0.00 0.00 80 1012.6
20260510110002 15 72 22.5 37.0 0.00 0.00 0.00 79 1012.2
20260510105457 16 64 24.1 38.6 0.00 0.00 0.00 79 1012.6
20260510104952 16 68 30.6 41.8 0.00 0.00 0.00 80 1012.7
20260510104449 16 44 20.9 40.2 0.00 0.00 0.00 81 1012.2
20260510103945 16 63 37.0 41.8 0.00 0.00 0.00 82 1012.6
20260510103443 16 62 22.5 38.6 0.00 0.00 0.00 82 1012.6
20260510102938 16 58 27.4 38.6 0.00 0.00 0.00 83 1012.5
20260510102434 15 9 19.3 32.2 0.00 0.00 0.00 83 1012.9
20260510101931 15 41 24.1 29.0 0.00 0.00 0.00 83 1012.1
20260510101429 15 70 19.3 40.2 0.00 0.00 0.00 83 1012.0
20260510100927 15 72 22.5 35.4 0.00 0.00 0.00 83 1011.9
20260510100423 15 73 24.1 33.8 0.00 0.00 0.00 83 1011.7
20260510095919 15 70 20.9 27.4 0.00 0.00 0.00 83 1011.8
20260510095415 15 66 16.1 22.5 0.00 0.00 0.00 83 1012.1
20260510094914 15 22 11.3 16.1 0.00 0.00 0.00 83 1012.3
20260510094409 15 65 12.9 19.3 0.00 0.00 0.00 83 1011.9
20260510093905 15 63 14.5 22.5 0.00 0.00 0.00 83 1011.7
20260510093401 15 87 16.1 25.7 0.00 0.00 0.00 82 1011.3
20260510092858 16 92 22.5 32.2 0.00 0.00 0.00 82 1010.9
20260510092354 16 85 14.5 30.6 0.00 0.00 0.00 82 1011.0
20260510091849 16 97 16.1 24.1 0.00 0.00 0.00 82 1010.7
20260510091347 16 85 20.9 32.2 0.00 0.00 0.00 82 1010.7
20260510090843 16 99 12.9 27.4 0.00 0.00 0.00 81 1010.5
20260510090340 16 115 24.1 35.4 0.00 0.00 0.00 81 1010.9
20260510085836 16 101 19.3 29.0 0.00 0.00 0.00 80 1010.5
20260510085330 16 107 22.5 35.4 0.00 0.00 0.00 80 1010.3
20260510084826 16 121 22.5 32.2 0.00 0.00 0.00 80 1010.6
20260510084324 16 114 20.9 32.2 0.00 0.00 0.00 79 1010.5
20260510083820 16 106 14.5 25.7 0.00 0.00 0.00 79 1010.6
20260510083317 16 94 16.1 29.0 0.00 0.00 0.00 78 1010.6
20260510082812 16 101 16.1 33.8 0.00 0.00 0.00 78 1010.3
20260510082310 16 84 24.1 30.6 0.00 0.00 0.00 77 1010.5
20260510081809 16 86 16.1 37.0 0.00 0.00 0.00 77 1010.5
20260510081305 16 103 19.3 38.6 0.00 0.00 0.00 76 1010.2
20260510080801 16 103 27.4 35.4 0.00 0.00 0.00 76 1010.3
20260510080255 16 95 20.9 35.4 0.00 0.00 0.00 76 1010.2
20260510075753 16 94 16.1 40.2 0.00 0.00 0.00 75 1010.0
20260510075250 17 101 37.0 40.2 0.00 0.00 0.00 75 1010.1
20260510074747 17 88 19.3 32.2 0.00 0.00 0.00 75 1010.0
20260510074244 17 83 22.5 41.8 0.00 0.00 0.00 74 1009.8
20260510073740 17 86 17.7 35.4 0.00 0.00 0.00 74 1009.6
20260510073236 17 80 29.0 32.2 0.00 0.00 0.00 74 1009.5
20260510072731 17 76 22.5 33.8 0.00 0.00 0.00 74 1009.2
20260510072229 17 72 20.9 24.1 0.00 0.00 0.00 74 1009.6
20260510071725 18 86 12.9 22.5 0.00 0.00 0.00 74 1009.5
20260510071222 18 58 20.9 29.0 0.00 0.00 0.00 74 1009.7
20260510070720 18 46 9.7 24.1 0.00 0.00 0.00 74 1009.7
20260510070217 18 40 16.1 24.1 0.00 0.00 0.00 73 1009.6
20260510065712 18 78 12.9 24.1 0.00 0.00 0.00 73 1009.7
20260510065208 18 83 22.5 32.2 0.00 0.00 0.00 72 1009.5
20260510064705 19 71 17.7 32.2 0.00 0.00 0.00 72 1009.3
20260510064203 19 67 25.7 41.8 0.00 0.00 0.00 72 1009.2
20260510063659 19 54 40.2 40.2 0.00 0.00 0.00 72 1009.1
20260510063155 18 57 35.4 37.0 0.00 0.00 0.00 72 1009.3
20260510062652 19 46 22.5 35.4 0.00 0.00 0.00 71 1009.5
20260510062148 19 61 17.7 35.4 0.00 0.00 0.00 71 1009.5
20260510061643 20 69 32.2 32.2 0.00 0.00 0.00 70 1009.7
20260510061141 20 88 14.5 27.4 0.00 0.00 0.00 69 1009.9
20260510060637 20 78 14.5 24.1 0.00 0.00 0.00 69 1009.9
20260510060134 20 74 19.3 29.0 0.00 0.00 0.00 69 1009.9
20260510055630 20 70 16.1 27.4 0.00 0.00 0.00 68 1009.8
20260510055128 20 63 17.7 32.2 0.00 0.00 0.00 68 1010.0
20260510054624 20 51 19.3 40.2 0.00 0.00 0.00 68 1009.8
20260510054119 20 58 30.6 41.8 0.00 0.00 0.00 67 1009.6
20260510053618 20 44 24.1 35.4 0.00 0.00 0.00 67 1009.9
20260510053116 20 58 17.7 27.4 0.00 0.00 0.00 66 1009.7
20260510052611 20 63 20.9 27.4 0.00 0.00 0.00 65 1009.7
20260510052108 21 64 11.3 16.1 0.00 0.00 0.00 64 1009.5
20260510051603 21 100 8.0 16.1 0.00 0.00 0.00 64 1009.6
20260510051101 21 106 8.0 24.1 0.00 0.00 0.00 63 1009.2
20260510050558 21 85 11.3 24.1 0.00 0.00 0.00 63 1009.2
20260510050055 21 92 16.1 20.9 0.00 0.00 0.00 62 1008.9
20260510045552 21 85 20.9 24.1 0.00 0.00 0.00 62 1009.0
20260510045048 21 84 17.7 22.5 0.00 0.00 0.00 62 1009.1
20260510044544 21 99 16.1 19.3 0.00 0.00 0.00 62 1008.9
20260510044042 21 94 8.0 22.5 0.00 0.00 0.00 61 1008.8
20260510043537 21 103 16.1 20.9 0.00 0.00 0.00 61 1008.8
20260510043033 21 86 19.3 24.1 0.00 0.00 0.00 60 1008.8
20260510042527 22 88 16.1 25.7 0.00 0.00 0.00 60 1008.8
20260510042022 21 103 14.5 22.5 0.00 0.00 0.00 60 1008.7
20260510041520 21 77 11.3 14.5 0.00 0.00 0.00 58 1008.3
20260510041017 21 73 11.3 17.7 0.00 0.00 0.00 58 1008.5
20260510040514 21 81 11.3 14.5 0.00 0.00 0.00 56 1008.5
20260510040009 21 88 6.4 8.0 0.00 0.00 0.00 54 1008.6
20260510035506 21 20 8.0 9.7 0.00 0.00 0.00 51 1008.6
20260510035005 22 120 8.0 9.7 0.00 0.00 0.00 53 1008.6
20260510034504 22 130 11.3 17.7 0.00 0.00 0.00 53 1008.6
20260510034000 21 143 9.7 14.5 0.00 0.00 0.00 48 1008.3
20260510033456 21 174 9.7 20.9 0.00 0.00 0.00 42 1008.6
20260510032954 21 225 6.4 9.7 0.00 0.00 0.00 37 1008.1
20260510032450 20 254 3.2 4.8 0.00 0.00 0.00 40 1007.7
20260510031945 21 50 8.0 12.9 0.00 0.00 0.00 36 1007.4
20260510031441 21 66 9.7 12.9 0.00 0.00 0.00 30 1007.4
20260510030936 21 50 11.3 14.5 0.00 0.00 0.00 29 1007.7
20260510030432 21 59 16.1 22.5 0.00 0.00 0.00 25 1007.4
20260510025930 22 10 6.4 14.5 0.00 0.00 0.00 22 1007.1
20260510025427 21 19 12.9 14.5 0.00 0.00 0.00 22 1006.6
20260510024925 20 15 8.0 9.7 0.00 0.00 0.00 23 1006.7
20260510024421 21 21 8.0 9.7 0.00 0.00 0.00 22 1006.4
20260510023917 21 96 4.8 6.4 0.00 0.00 0.00 22 1006.6
20260510023413 21 61 6.4 9.7 0.00 0.00 0.00 21 1006.2
20260510022911 22 59 6.4 9.7 0.00 0.00 0.00 21 1006.0
20260510022410 22 33 6.4 8.0 0.00 0.00 0.00 20 1006.1
20260510021909 22 57 8.0 11.3 0.00 0.00 0.00 19 1005.8
20260510021407 22 55 8.0 8.0 0.00 0.00 0.00 18 1005.8
20260510020903 23 36 4.8 6.4 0.00 0.00 0.00 18 1006.0
20260510020358 23 50 4.8 6.4 0.00 0.00 0.00 17 1005.8
20260510015854 23 64 6.4 8.0 0.00 0.00 0.00 17 1005.7
20260510015350 23 36 4.8 4.8 0.00 0.00 0.00 17 1005.6
20260510014845 23 51 3.2 4.8 0.00 0.00 0.00 17 1005.3
20260510014343 24 73 3.2 4.8 0.00 0.00 0.00 17 1005.4
20260510013839 24 59 4.8 6.4 0.00 0.00 0.00 18 1005.2
20260510013335 25 75 4.8 6.4 0.00 0.00 0.00 18 1005.1
20260510012830 26 55 4.8 6.4 0.00 0.00 0.00 17 1005.2
20260510012330 26 45 4.8 8.0 0.00 0.00 0.00 17 1005.1
20260510011825 26 33 4.8 6.4 0.00 0.00 0.00 16 1005.0
20260510011320 27 21 4.8 8.0 0.00 0.00 0.00 15 1004.8
20260510010817 27 25 4.8 4.8 0.00 0.00 0.00 16 1005.0
20260510010315 28 30 4.8 4.8 0.00 0.00 0.00 15 1004.8
20260510005811 29 21 4.8 6.4 0.00 0.00 0.00 14 1004.7
20260510005307 30 24 4.8 8.0 0.00 0.00 0.00 14 1004.9
20260510004805 30 15 4.8 6.4 0.00 0.00 0.00 14 1005.0
20260510004302 30 3 4.8 8.0 0.00 0.00 0.00 13 1004.9
20260510003800 31 4 4.8 6.4 0.00 0.00 0.00 12 1005.0
20260510003257 31 354 8.0 9.7 0.00 0.00 0.00 12 1004.9
20260510002755 31 29 12.9 12.9 0.00 0.00 0.00 12 1005.0
20260510002253 32 358 11.3 11.3 0.00 0.00 0.00 11 1005.0
20260510001749 32 269 0.0 6.4 0.00 0.00 0.00 11 1004.8
20260510001248 31 325 6.4 11.3 0.00 0.00 0.00 13 1005.3
20260510000743 31 309 6.4 16.1 0.00 0.00 0.00 13 1005.0
20260510000241 31 336 8.0 14.5 0.00 0.00 0.00 12 1005.0
20260509235737 31 341 8.0 16.1 0.00 0.00 0.00 13 1005.1
20260509235234 32 308 11.3 20.9 0.00 0.00 0.00 12 1005.2
20260509234730 32 281 6.4 14.5 0.00 0.00 0.00 11 1005.1
20260509234227 31 281 6.4 20.9 0.00 0.00 0.00 13 1005.6
20260509233725 32 306 17.7 17.7 0.00 0.00 0.00 11 1005.4
20260509233223 32 281 17.7 24.1 0.00 0.00 0.00 12 1005.3
20260509232718 32 306 19.3 29.0 0.00 0.00 0.00 11 1005.3
20260509232216 31 310 12.9 27.4 0.00 0.00 0.00 12 1005.7
20260509231712 31 312 16.1 30.6 0.00 0.00 0.00 12 1005.2
20260509231209 31 312 14.5 25.7 0.00 0.00 0.00 13 1005.1
20260509230707 31 252 14.5 30.6 0.00 0.00 0.00 13 1005.4
20260509230203 31 248 8.0 24.1 0.00 0.00 0.00 13 1005.1
20260509225659 32 290 20.9 27.4 0.00 0.00 0.00 12 1005.2
20260509225155 31 275 12.9 29.0 0.00 0.00 0.00 13 1005.6
20260509224651 32 249 20.9 41.8 0.00 0.00 0.00 13 1005.3
20260509224148 31 314 17.7 27.4 0.00 0.00 0.00 12 1005.3
20260509223645 32 287 8.0 17.7 0.00 0.00 0.00 13 1005.3
20260509223142 32 265 16.1 25.7 0.00 0.00 0.00 13 1005.6
20260509222639 31 299 14.5 25.7 0.00 0.00 0.00 12 1005.4
20260509222134 32 265 4.8 12.9 0.00 0.00 0.00 14 1005.2
20260509221630 32 309 9.7 14.5 0.00 0.00 0.00 14 1005.4
20260509221126 32 271 16.1 32.2 0.00 0.00 0.00 14 1005.7
20260509220622 32 294 20.9 35.4 0.00 0.00 0.00 14 1005.1
20260509220113 32 266 9.7 19.3 0.00 0.00 0.00 15 1005.3
20260509215609 32 312 11.3 20.9 0.00 0.00 0.00 16 1005.6
20260509215106 32 283 11.3 30.6 0.00 0.00 0.00 15 1005.7
20260509214602 31 254 8.0 40.2 0.00 0.00 0.00 15 1005.7
20260509214059 31 268 4.8 27.4 0.00 0.00 0.00 14 1005.7
20260509213555 31 304 20.9 32.2 0.00 0.00 0.00 14 1005.7
20260509213052 31 289 9.7 20.9 0.00 0.00 0.00 16 1005.6
20260509212549 31 325 20.9 27.4 0.00 0.00 0.00 17 1005.8
20260509212046 32 292 6.4 37.0 0.00 0.00 0.00 16 1005.9
20260509211541 31 313 22.5 37.0 0.00 0.00 0.00 15 1006.0
20260509211039 31 320 9.7 16.1 0.00 0.00 0.00 18 1006.0
20260509210536 31 284 11.3 25.7 0.00 0.00 0.00 19 1006.2
20260509210032 31 305 17.7 29.0 0.00 0.00 0.00 18 1006.3
20260509205526 32 292 27.4 27.4 0.00 0.00 0.00 18 1006.3
20260509205022 31 294 11.3 19.3 0.00 0.00 0.00 20 1006.3
20260509204518 31 298 14.5 19.3 0.00 0.00 0.00 22 1006.3
20260509204015 31 300 9.7 20.9 0.00 0.00 0.00 20 1006.6
20260509203511 31 306 8.0 24.1 0.00 0.00 0.00 21 1006.7
20260509203009 31 297 17.7 30.6 0.00 0.00 0.00 19 1006.6
20260509202503 31 278 3.2 14.5 0.00 0.00 0.00 20 1006.3
20260509201959 30 234 24.1 32.2 0.00 0.00 0.00 21 1006.9
20260509201454 31 239 20.9 20.9 0.00 0.00 0.00 21 1006.8
20260509200951 31 246 32.2 40.2 0.00 0.00 0.00 21 1006.8
20260509200446 31 277 9.7 35.4 0.00 0.00 0.00 20 1006.9
20260509195943 30 242 11.3 19.3 0.00 0.00 0.00 20 1007.1
20260509195439 31 242 16.1 27.4 0.00 0.00 0.00 21 1007.0
20260509194938 30 315 14.5 33.8 0.00 0.00 0.00 21 1007.2
20260509194434 31 292 16.1 25.7 0.00 0.00 0.00 22 1007.2
20260509193931 30 247 8.0 12.9 0.00 0.00 0.00 23 1007.6
20260509193431 30 230 14.5 16.1 0.00 0.00 0.00 21 1007.2
20260509192927 30 290 9.7 24.1 0.00 0.00 0.00 23 1007.6
20260509192424 30 219 17.7 29.0 0.00 0.00 0.00 21 1007.7
20260509191919 30 229 22.5 45.1 0.00 0.00 0.00 20 1007.8
20260509191414 30 224 17.7 32.2 0.00 0.00 0.00 21 1007.8
20260509190911 30 289 6.4 20.9 0.00 0.00 0.00 25 1007.8
20260509190408 30 233 22.5 38.6 0.00 0.00 0.00 21 1008.1
20260509185906 30 212 11.3 22.5 0.00 0.00 0.00 22 1007.9
20260509185403 30 246 17.7 27.4 0.00 0.00 0.00 23 1008.2
20260509184859 30 228 20.9 41.8 0.00 0.00 0.00 21 1008.1
20260509184356 30 244 22.5 41.8 0.00 0.00 0.00 22 1008.1
20260509183854 30 229 22.5 35.4 0.00 0.00 0.00 21 1008.3
20260509183348 29 222 22.5 32.2 0.00 0.00 0.00 22 1008.2
20260509182844 30 229 25.7 35.4 0.00 0.00 0.00 24 1008.2
20260509182341 29 234 22.5 45.1 0.00 0.00 0.00 23 1008.3
20260509181838 29 234 16.1 27.4 0.00 0.00 0.00 26 1008.6
20260509181336 29 235 20.9 41.8 0.00 0.00 0.00 24 1008.7
20260509180833 28 221 25.7 46.7 0.00 0.00 0.00 24 1008.9
20260509180329 28 208 20.9 33.8 0.00 0.00 0.00 26 1008.7
20260509175826 28 205 19.3 22.5 0.00 0.00 0.00 26 1009.2
20260509175322 28 214 25.7 59.5 0.00 0.00 0.00 25 1009.2
20260509174818 28 218 20.9 32.2 0.00 0.00 0.00 27 1009.2
20260509174314 28 223 14.5 24.1 0.00 0.00 0.00 29 1009.1
20260509173810 28 197 9.7 33.8 0.00 0.00 0.00 29 1009.3
20260509173306 27 208 14.5 24.1 0.00 0.00 0.00 30 1009.6
20260509172801 27 207 24.1 46.7 0.00 0.00 0.00 30 1009.8
20260509172253 28 184 19.3 40.2 0.00 0.00 0.00 29 1009.7
20260509171748 27 158 22.5 29.0 0.00 0.00 0.00 30 1009.6
20260509171245 27 196 8.0 29.0 0.00 0.00 0.00 31 1009.7
20260509170742 27 180 22.5 32.2 0.00 0.00 0.00 30 1009.6
20260509170238 27 194 32.2 32.2 0.00 0.00 0.00 29 1009.9
20260509165736 27 162 12.9 25.7 0.00 0.00 0.00 33 1009.7
20260509165232 26 202 16.1 32.2 0.00 0.00 0.00 33 1009.9
20260509164728 26 187 11.3 29.0 0.00 0.00 0.00 33 1009.9
20260509164224 26 202 37.0 37.0 0.00 0.00 0.00 33 1010.1
20260509163721 26 191 8.0 25.7 0.00 0.00 0.00 35 1010.2
20260509163217 26 200 8.0 29.0 0.00 0.00 0.00 33 1010.2
20260509162715 26 191 22.5 37.0 0.00 0.00 0.00 35 1010.6
20260509162210 26 209 24.1 27.4 0.00 0.00 0.00 35 1010.3
20260509161706 26 177 16.1 32.2 0.00 0.00 0.00 35 1010.5
20260509161203 25 184 11.3 40.2 0.00 0.00 0.00 36 1010.3
20260509160658 25 185 8.0 29.0 0.00 0.00 0.00 36 1010.3
20260509160154 25 200 24.1 24.1 0.00 0.00 0.00 36 1010.6
20260509155650 25 176 8.0 20.9 0.00 0.00 0.00 39 1010.3
20260509155146 25 157 16.1 22.5 0.00 0.00 0.00 40 1010.7
20260509154642 25 166 14.5 22.5 0.00 0.00 0.00 39 1010.7
20260509154139 25 171 11.3 20.9 0.00 0.00 0.00 38 1010.6
20260509153636 23 184 20.9 20.9 0.00 0.00 0.00 41 1010.5
20260509153133 23 190 8.0 20.9 0.00 0.00 0.00 40 1010.8
20260509152628 23 177 9.7 20.9 0.00 0.00 0.00 40 1010.7
20260509152126 23 195 8.0 19.3 0.00 0.00 0.00 43 1011.0
20260509151622 23 174 11.3 17.7 0.00 0.00 0.00 43 1011.0
20260509151120 22 196 6.4 22.5 0.00 0.00 0.00 43 1010.9
20260509150618 22 162 4.8 20.9 0.00 0.00 0.00 44 1011.1
20260509150116 21 131 20.9 20.9 0.00 0.00 0.00 49 1011.0
20260509145611 22 137 17.7 27.4 0.00 0.00 0.00 48 1011.0
20260509145107 22 183 6.4 24.1 0.00 0.00 0.00 49 1011.0
20260509144604 22 177 8.0 22.5 0.00 0.00 0.00 48 1011.1
20260509144101 21 144 12.9 22.5 0.00 0.00 0.00 51 1011.0
20260509143558 21 138 14.5 22.5 0.00 0.00 0.00 56 1011.1
20260509143056 21 145 14.5 24.1 0.00 0.00 0.00 56 1010.9
20260509142551 21 167 6.4 16.1 0.00 0.00 0.00 55 1011.0
20260509142047 21 177 8.0 14.5 0.00 0.00 0.00 53 1011.5
20260509141543 20 182 9.7 14.5 0.00 0.00 0.00 55 1011.2
20260509141040 20 138 8.0 14.5 0.00 0.00 0.00 56 1011.1
20260509140537 20 132 9.7 12.9 0.00 0.00 0.00 56 1011.1
20260509140035 20 118 8.0 12.9 0.00 0.00 0.00 54 1011.2
20260509135532 20 95 3.2 8.0 0.00 0.00 0.00 50 1011.2
20260509135030 19 353 0.0 4.8 0.00 0.00 0.00 50 1011.3
20260509134526 19 22 1.6 6.4 0.00 0.00 0.00 46 1011.3
20260509134024 18 88 3.2 8.0 0.00 0.00 0.00 47 1011.3
20260509133520 18 44 3.2 8.0 0.00 0.00 0.00 45 1011.1
20260509133019 18 36 3.2 6.4 0.00 0.00 0.00 44 1011.1